This demonstration page uses our WeatherBlox Daily Observations layout. Learn more.

Left ArrowRight Arrow

Hourly Observations for November 6, 2020

Temp ( °F °C ) Dew Point ( °F °C ) Humidity (%) Winds ( mph kmh ) Pressure ( in mb ) Visibility ( mi km ) Precip ( " mm )
12:15 am 00:15 Clear 52 11.2 34 1 50 50 SSW 8 13 30.09 1019 10 16 N/A
12:35 am 00:35 Clear 52 11.2 34 1 50 50 SSW 8 13 30.09 1019 10 16 N/A
12:55 am 00:55 Clear 52 11.3 34 1 49 49 SSW 8 13 30.08 1019 10 16 N/A
1:15 am 01:15 Clear 54 12.1 34 1 47 47 SSW 8 13 30.07 1018 10 16 N/A
1:35 am 01:35 Clear 53 11.8 34 1 48 48 SSW 7 11 30.07 1018 10 16 N/A
1:55 am 01:55 Clear 55 12.5 33 0.8 45 45 SSW 10 17 30.05 1018 10 16 N/A
2:15 am 02:15 Clear 54 12.1 33 0.6 46 46 SSW 8 13 30.05 1018 10 16 N/A
2:35 am 02:35 Clear 51 10.6 33 0.5 50 50 SW 7 11 30.07 1018 10 16 N/A
2:55 am 02:55 Clear 51 10.3 33 0.5 51 51 SW 7 11 30.07 1018 10 16 N/A
3:15 am 03:15 Clear 49 9.7 33 0.3 52 52 SW 6 9 30.07 1018 10 16 N/A
3:35 am 03:35 Clear 48 9 32 0.1 54 54 SSW 8 13 30.07 1018 10 16 N/A
3:55 am 03:55 Clear 48 9.1 32 undefined 53 53 SSW 7 11 30.07 1018 10 16 N/A
4:15 am 04:15 Clear 48 8.8 32 undefined 54 54 SSW 6 9 30.05 1018 10 16 N/A
4:35 am 04:35 Clear 48 8.9 32 undefined 54 54 SSW 7 11 30.06 1018 10 16 N/A
4:55 am 04:55 Clear 48 9.1 32 -0.1 53 53 SSW 8 13 30.06 1018 10 16 N/A
5:15 am 05:15 Clear 46 7.9 31 -0.3 57 57 SSW 6 9 30.06 1018 10 16 N/A
5:35 am 05:35 Clear 45 7.2 31 -0.5 58 58 SW 6 9 30.08 1019 10 16 N/A
5:55 am 05:55 Clear 46 7.5 31 -0.5 57 57 SSW 6 9 30.07 1018 10 16 N/A
6:15 am 06:15 Clear 45 7.1 31 -0.5 59 59 SSW 7 11 30.07 1018 10 16 N/A
6:35 am 06:35 Clear 46 7.6 31 -0.6 56 56 SSW 7 11 30.06 1018 10 16 N/A
6:55 am 06:55 Clear 45 7.1 31 -0.7 58 58 SSW 7 11 30.07 1018 10 16 N/A
7:15 am 07:15 Sunny 45 7.3 31 -0.6 58 58 SSW 6 9 30.07 1018 10 16 N/A
7:35 am 07:35 Sunny 41 5.1 30 -1.1 65 65 S 3 6 30.07 1018 10 16 N/A
7:55 am 07:55 Sunny 42 5.4 31 -0.5 66 66 S 3 6 30.06 1018 10 16 N/A
8:15 am 08:15 Sunny 47 8.5 32 undefined 55 55 S 8 13 30.04 1017 10 16 N/A
8:35 am 08:35 Sunny 52 10.9 32 0.2 48 48 SSW 8 13 30.01 1016 10 16 N/A
8:55 am 08:55 Sunny 55 12.7 33 0.5 43 43 SSW 13 20 30.00 1016 10 16 N/A
9:15 am 09:15 Sunny 58 14.5 33 0.7 39 39 SSW 14 22 29.98 1015 10 16 N/A
9:35 am 09:35 Sunny 62 16.5 34 1.1 36 36 S 12 19 29.97 1015 10 16 N/A
9:55 am 09:55 Sunny 64 17.8 35 1.5 34 34 S 12 19 29.95 1014 10 16 N/A
10:15 am 10:15 Sunny 66 18.8 35 1.5 32 32 SSW 14 22 29.94 1014 10 16 N/A
10:35 am 10:35 Sunny 67 19.2 35 1.5 31 31 S 17 28 29.92 1013 10 16 N/A
10:55 am 10:55 Sunny 68 20 35 1.6 29 29 S 18 30 29.92 1013 10 16 N/A
11:15 am 11:15 Sunny 69 20.8 35 1.6 28 28 S 16 26 29.90 1013 10 16 N/A
11:35 am 11:35 Sunny 72 22.3 34 1.2 25 25 SSW 16 26 29.88 1012 10 16 N/A
11:55 am 11:55 Sunny 73 23 34 1 23 23 S 16 26 29.86 1011 10 16 N/A
12:15 pm 12:15 Sunny 75 24 33 0.7 22 22 S 16 26 29.84 1011 10 16 N/A
12:35 pm 12:35 Sunny 76 24.5 33 0.6 21 21 SSW 17 28 29.82 1010 10 16 N/A
12:55 pm 12:55 Sunny 77 24.9 33 0.8 21 21 S 17 28 29.81 1009 10 16 N/A
1:15 pm 13:15 Sunny 77 25.2 34 1 21 21 S 14 22 29.80 1009 10 16 N/A
1:35 pm 13:35 Sunny 78 25.6 33 0.5 19 19 S 18 30 29.78 1009 10 16 N/A
1:55 pm 13:55 Sunny 79 26.1 32 undefined 18 18 S 17 28 29.77 1008 10 16 N/A
2:15 pm 14:15 Sunny 79 26.2 32 undefined 18 18 S 24 39 29.76 1008 10 16 N/A
2:35 pm 14:35 Sunny 80 26.5 32 -0.1 17 17 S 20 31 29.76 1008 10 16 N/A
2:55 pm 14:55 Sunny 80 26.7 32 undefined 17 17 S 17 28 29.74 1007 10 16 N/A
3:15 pm 15:15 Sunny 80 26.6 32 undefined 18 18 S 20 31 29.74 1007 10 16 N/A
3:35 pm 15:35 Sunny 80 26.5 31 -0.4 17 17 S 20 31 29.74 1007 10 16 N/A
3:55 pm 15:55 Sunny 79 26 31 -0.3 18 18 S 22 35 29.73 1007 10 16 N/A
4:15 pm 16:15 Sunny 78 25.5 33 0.6 20 20 S 18 30 29.73 1007 10 16 N/A
4:35 pm 16:35 Sunny 76 24.6 35 1.4 22 22 S 15 24 29.74 1007 10 16 N/A
4:55 pm 16:55 Sunny 75 23.7 35 1.5 23 23 S 13 20 29.74 1007 10 16 N/A
5:15 pm 17:15 Sunny 72 22.4 34 1.2 25 25 SSE 10 17 29.76 1008 10 16 N/A
5:35 pm 17:35 Clear 71 21.5 35 1.6 27 27 SSE 14 22 29.77 1008 10 16 N/A
5:55 pm 17:55 Clear 70 21 36 2 29 29 SSE 16 26 29.77 1008 10 16 N/A
6:15 pm 18:15 Clear 69 20.3 35 1.8 29 29 SSE 16 26 29.78 1008 10 16 N/A
6:35 pm 18:35 Clear 67 19.5 35 1.8 31 31 S 14 22 29.78 1009 10 16 N/A
6:55 pm 18:55 Clear 66 18.8 36 2.1 33 33 S 17 28 29.79 1009 10 16 N/A
7:15 pm 19:15 Clear 66 18.7 36 2.3 34 34 S 18 30 29.79 1009 10 16 N/A
7:35 pm 19:35 Clear 64 17.8 37 2.7 37 37 S 17 28 29.80 1009 10 16 N/A
7:55 pm 19:55 Clear 64 18 39 3.8 39 39 SSE 15 24 29.79 1009 10 16 N/A
8:15 pm 20:15 Clear 63 17.4 40 4.6 43 43 S 14 22 29.81 1009 10 16 N/A
8:35 pm 20:35 Clear 64 17.5 46 7.5 52 52 S 14 22 29.81 1009 10 16 N/A
8:55 pm 20:55 Clear 63 17.1 49 9.2 60 60 S 14 22 29.82 1010 10 16 N/A
9:15 pm 21:15 Clear 62 16.7 50 10.1 65 65 SSE 13 20 29.83 1010 10 16 N/A
9:35 pm 21:35 Clear 61 16.3 51 10.6 69 69 S 15 24 29.82 1010 10 16 N/A
9:55 pm 21:55 Clear 61 16.2 52 11.2 72 72 S 17 28 29.82 1010 10 16 N/A
10:15 pm 22:15 Clear 61 16.2 53 11.5 74 74 S 14 22 29.82 1010 10 16 N/A
10:35 pm 22:35 Clear 61 16 53 11.6 75 75 S 15 24 29.82 1010 10 16 N/A
10:55 pm 22:55 Clear 60 15.6 53 11.6 77 77 S 15 24 29.82 1010 10 16 N/A
11:15 pm 23:15 Clear 60 15.5 53 11.6 78 78 S 17 28 29.83 1010 10 16 N/A
11:35 pm 23:35 Clear 60 15.3 53 11.5 78 78 S 16 26 29.83 1010 10 16 N/A
11:55 pm 23:55 Clear 59 15.1 53 11.5 79 79 S 16 26 29.82 1010 10 16 N/A

Powered by AerisWeather